�������l�o���
Date,Time,MP-1(��Sv/h),MP-2(��Sv/h),MP-3(��Sv/h),MP-4(��Sv/h),MP-5(��Sv/h),MP-6(��Sv/h),MP-7(��Sv/h),MP-8(��Sv/h),����,����(m/s),���J
2018/10/19,00:00,0.786,1.193,0.837,1.493,1.075,0.461,0.810,0.768,�k�k��,6.8,��
2018/10/19,00:10,0.788,1.192,0.838,1.493,1.075,0.461,0.810,0.767,�k�k��,6.8,��
2018/10/19,00:20,0.788,1.193,0.839,1.491,1.077,0.461,0.810,0.769,�k�k��,6.5,��
2018/10/19,00:30,0.787,1.189,0.836,1.492,1.074,0.460,0.810,0.766,�k�k��,7.0,��
2018/10/19,00:40,0.787,1.193,0.836,1.489,1.076,0.461,0.810,0.768,�k�k��,6.6,��
2018/10/19,00:50,0.788,1.194,0.834,1.493,1.073,0.461,0.810,0.767,�k�k��,7.7,��
2018/10/19,01:00,0.787,1.190,0.837,1.493,1.073,0.460,0.810,0.767,�k�k��,7.5,��
2018/10/19,01:10,0.788,1.192,0.835,1.494,1.074,0.462,0.809,0.766,�k�k��,7.7,��
2018/10/19,01:20,0.787,1.191,0.836,1.494,1.078,0.460,0.809,0.767,�k�k��,8.2,��
2018/10/19,01:30,0.790,1.190,0.836,1.492,1.076,0.460,0.811,0.766,�k�k��,8.1,��
2018/10/19,01:40,0.786,1.193,0.836,1.492,1.077,0.462,0.809,0.767,�k��,8.2,��
2018/10/19,01:50,0.789,1.191,0.838,1.492,1.078,0.460,0.809,0.768,�k�k��,8.2,��
2018/10/19,02:00,0.787,1.193,0.834,1.494,1.073,0.461,0.811,0.767,�k�k��,8.4,��
2018/10/19,02:10,0.786,1.191,0.837,1.493,1.074,0.461,0.811,0.766,�k�k��,8.6,��
2018/10/19,02:20,0.787,1.193,0.836,1.492,1.072,0.461,0.812,0.767,�k�k��,8.4,��
2018/10/19,02:30,0.789,1.190,0.836,1.492,1.074,0.462,0.811,0.769,�k�k��,8.6,��
2018/10/19,02:40,0.787,1.192,0.836,1.493,1.077,0.461,0.810,0.767,�k�k��,8.6,��
2018/10/19,02:50,0.788,1.191,0.837,1.495,1.077,0.462,0.810,0.769,�k�k��,8.8,��
2018/10/19,03:00,0.790,1.191,0.837,1.493,1.074,0.462,0.809,0.766,�k�k��,8.4,��
2018/10/19,03:10,0.788,1.192,0.838,1.493,1.073,0.461,0.810,0.767,�k�k��,9.2,��
2018/10/19,03:20,0.787,1.194,0.837,1.493,1.076,0.461,0.811,0.768,�k�k��,9.1,��
2018/10/19,03:30,0.788,1.191,0.836,1.494,1.075,0.461,0.809,0.765,�k�k��,8.7,��
2018/10/19,03:40,0.788,1.190,0.838,1.493,1.074,0.461,0.809,0.768,�k�k��,7.8,��
2018/10/19,03:50,0.787,1.191,0.838,1.493,1.075,0.461,0.810,0.766,�k�k��,8.5,��
2018/10/19,04:00,0.789,1.190,0.837,1.494,1.074,0.461,0.811,0.768,�k��,8.7,�L
2018/10/19,04:10,0.790,1.192,0.837,1.495,1.075,0.462,0.809,0.767,�k�k��,8.0,�L
2018/10/19,04:20,0.789,1.194,0.836,1.497,1.074,0.461,0.811,0.769,�k��,8.3,�L
2018/10/19,04:30,0.785,1.191,0.837,1.498,1.076,0.460,0.809,0.767,�k�k��,8.2,�L
2018/10/19,04:40,0.790,1.193,0.837,1.494,1.079,0.461,0.810,0.769,�k�k��,8.9,�L
2018/10/19,04:50,0.788,1.190,0.837,1.493,1.077,0.460,0.810,0.768,�k�k��,7.5,�L
2018/10/19,05:00,0.787,1.193,0.836,1.493,1.075,0.462,0.808,0.770,�k�k��,8.1,�L
2018/10/19,05:10,0.789,1.194,0.838,1.496,1.076,0.462,0.809,0.768,�k�k��,8.5,�L
2018/10/19,05:20,0.790,1.193,0.839,1.494,1.076,0.461,0.810,0.768,�k�k��,7.8,�L
2018/10/19,05:30,0.787,1.194,0.836,1.494,1.074,0.461,0.810,0.767,�k�k��,7.8,�L
2018/10/19,05:40,0.788,1.192,0.838,1.494,1.077,0.462,0.809,0.769,�k�k��,7.9,��
2018/10/19,05:50,0.788,1.194,0.838,1.495,1.073,0.463,0.810,0.768,�k�k��,8.0,��
2018/10/19,06:00,0.789,1.193,0.834,1.496,1.075,0.461,0.810,0.768,�k�k��,7.3,�L
2018/10/19,06:10,0.788,1.192,0.838,1.493,1.077,0.460,0.809,0.768,�k�k��,7.7,�L
2018/10/19,06:20,0.789,1.193,0.836,1.493,1.076,0.461,0.809,0.767,�k�k��,6.4,�L
2018/10/19,06:30,0.787,1.193,0.838,1.496,1.074,0.461,0.808,0.767,�k�k��,6.3,�L
2018/10/19,06:40,0.788,1.192,0.837,1.494,1.074,0.461,0.808,0.770,�k�k��,6.2,�L
2018/10/19,06:50,0.787,1.192,0.838,1.493,1.077,0.461,0.808,0.766,�k�k��,5.4,�L
2018/10/19,07:00,0.788,1.188,0.836,1.492,1.074,0.462,0.806,0.767,�k�k��,6.2,�L
2018/10/19,07:10,0.788,1.188,0.836,1.490,1.073,0.462,0.807,0.767,�k,5.8,�L
2018/10/19,07:20,0.787,1.187,0.835,1.494,1.072,0.461,0.806,0.768,�k�k��,6.7,�L
2018/10/19,07:30,0.787,1.182,0.833,1.490,1.072,0.461,0.807,0.767,�k�k��,6.5,�L
2018/10/19,07:40,0.784,1.176,0.833,1.487,1.063,0.462,0.807,0.767,�k��,6.5,�L
2018/10/19,07:50,0.786,1.176,0.831,1.484,1.060,0.462,0.805,0.767,�k�k��,6.5,�L
2018/10/19,08:00,0.783,1.173,0.832,1.486,1.058,0.462,0.804,0.766,�k�k��,6.2,�L
2018/10/19,08:10,0.783,1.175,0.831,1.486,1.060,0.461,0.806,0.766,�k�k��,5.3,�L
2018/10/19,08:20,0.783,1.171,0.830,1.485,1.056,0.461,0.804,0.764,�k,6.3,�L
2018/10/19,08:30,0.779,1.170,0.830,1.486,1.058,0.460,0.804,0.765,�k,7.6,�L
2018/10/19,08:40,0.781,1.171,0.830,1.486,1.056,0.460,0.804,0.766,�k�k��,6.6,��
2018/10/19,08:50,0.781,1.171,0.829,1.484,1.057,0.460,0.802,0.765,�k�k��,7.4,��
2018/10/19,09:00,0.781,1.172,0.827,1.484,1.057,0.458,0.803,0.764,�k��,6.6,��
2018/10/19,09:10,0.781,1.169,0.830,1.483,1.055,0.458,0.805,0.765,�k��,6.2,�L
2018/10/19,09:20,0.779,1.173,0.829,1.482,1.056,0.460,0.805,0.763,�k��,6.7,�L
2018/10/19,09:30,0.780,1.171,0.829,1.485,1.053,0.458,0.803,0.766,�k��,6.9,�L
2018/10/19,09:40,0.780,1.172,0.827,1.484,1.056,0.457,0.804,0.765,�k��,7.7,�L
2018/10/19,09:50,0.780,1.168,0.828,1.484,1.054,0.457,0.804,0.765,�k��,6.3,��
2018/10/19,10:00,0.781,1.167,0.828,1.482,1.052,0.457,0.804,0.766,�k��,7.2,��
2018/10/19,10:10,0.780,1.169,0.829,1.484,1.055,0.458,0.803,0.765,�k��,6.2,��
2018/10/19,10:20,0.780,1.166,0.827,1.486,1.054,0.456,0.805,0.765,�k��,5.7,��
2018/10/19,10:30,0.780,1.173,0.828,1.484,1.053,0.457,0.804,0.766,�k��,5.5,��
2018/10/19,10:40,0.781,1.169,0.828,1.486,1.055,0.458,0.803,0.765,�k��,5.6,��
2018/10/19,10:50,0.780,1.168,0.829,1.484,1.056,0.456,0.805,0.765,�k�k��,6.6,��
2018/10/19,11:00,0.780,1.173,0.830,1.482,1.053,0.457,0.807,0.765,�k�k��,6.2,��
2018/10/19,11:10,0.782,1.171,0.828,1.485,1.054,0.456,0.804,0.765,�k�k��,5.1,��
2018/10/19,11:20,0.781,1.172,0.830,1.485,1.059,0.457,0.805,0.766,�k�k��,3.7,��
2018/10/19,11:30,0.781,1.174,0.832,1.485,1.056,0.458,0.804,0.765,�k�k��,4.2,��
2018/10/19,11:40,0.781,1.169,0.831,1.483,1.054,0.456,0.805,0.764,�k�k��,4.5,��
2018/10/19,11:50,0.779,1.172,0.830,1.485,1.054,0.456,0.806,0.764,�k�k��,4.0,��
2018/10/19,12:00,0.780,1.171,0.832,1.486,1.055,0.456,0.806,0.762,�k�k��,3.5,��
2018/10/19,12:10,0.781,1.170,0.830,1.485,1.055,0.455,0.805,0.762,�k��,3.2,��
2018/10/19,12:20,0.780,1.170,0.829,1.488,1.054,0.457,0.804,0.764,�k��,3.5,��
2018/10/19,12:30,0.777,1.170,0.833,1.485,1.056,0.456,0.806,0.763,�k�k��,3.6,��
2018/10/19,12:40,0.780,1.170,0.831,1.486,1.055,0.455,0.804,0.763,�k�k��,3.9,��
2018/10/19,12:50,0.780,1.172,0.830,1.487,1.056,0.457,0.805,0.764,�k�k��,3.5,��
2018/10/19,13:00,0.781,1.172,0.831,1.486,1.058,0.456,0.804,0.765,�k�k��,4.4,��
2018/10/19,13:10,0.782,1.172,0.829,1.486,1.053,0.457,0.806,0.765,�k�k��,3.8,��
2018/10/19,13:20,0.783,1.172,0.831,1.487,1.057,0.458,0.807,0.765,�k�k��,3.5,��
2018/10/19,13:30,0.783,1.174,0.833,1.486,1.055,0.458,0.805,0.763,�k��,3.3,��
2018/10/19,13:40,0.782,1.175,0.831,1.489,1.057,0.458,0.808,0.762,�k��,3.9,��
2018/10/19,13:50,0.782,1.173,0.832,1.488,1.058,0.457,0.806,0.763,�k�k��,4.3,��
2018/10/19,14:00,0.780,1.174,0.832,1.489,1.059,0.457,0.807,0.762,�k��,3.1,��
2018/10/19,14:10,0.782,1.174,0.831,1.485,1.056,0.457,0.805,0.763,�k�k��,3.0,��
2018/10/19,14:20,0.782,1.173,0.830,1.486,1.057,0.457,0.809,0.762,�k��,3.2,��
2018/10/19,14:30,0.782,1.175,0.830,1.488,1.058,0.457,0.807,0.762,�k��,4.1,��
2018/10/19,14:40,0.782,1.174,0.830,1.490,1.057,0.457,0.808,0.764,�k�k��,2.5,��
2018/10/19,14:50,0.782,1.173,0.829,1.487,1.058,0.458,0.807,0.763,�k�k��,3.7,��
2018/10/19,15:00,0.782,1.177,0.829,1.490,1.058,0.458,0.806,0.762,�k�k��,3.9,��
2018/10/19,15:10,0.782,1.174,0.832,1.490,1.057,0.459,0.808,0.764,�k��,3.2,��
2018/10/19,15:20,0.781,1.174,0.832,1.490,1.057,0.458,0.809,0.765,�k��,3.6,��
2018/10/19,15:30,0.780,1.177,0.834,1.489,1.061,0.456,0.807,0.764,�k��,2.6,��
2018/10/19,15:40,0.781,1.175,0.833,1.489,1.058,0.459,0.806,0.764,�k��,3.5,��
2018/10/19,15:50,0.782,1.178,0.832,1.490,1.059,0.459,0.806,0.762,�k��,3.2,��
2018/10/19,16:00,0.784,1.178,0.833,1.490,1.062,0.459,0.806,0.765,�k��,2.8,��
2018/10/19,16:10,0.783,1.181,0.833,1.488,1.062,0.459,0.807,0.766,�k��,2.5,��
2018/10/19,16:20,0.784,1.182,0.833,1.487,1.060,0.459,0.806,0.765,�k��,2.3,��
2018/10/19,16:30,0.785,1.183,0.832,1.488,1.061,0.458,0.807,0.767,�k�k��,2.9,��
2018/10/19,16:40,0.783,1.182,0.834,1.488,1.062,0.458,0.807,0.765,�k�k��,2.6,��
2018/10/19,16:50,0.784,1.181,0.831,1.488,1.061,0.459,0.807,0.768,-,CALM,��
2018/10/19,17:00,0.783,1.182,0.834,1.489,1.063,0.459,0.805,0.766,�k�k��,4.2,��
2018/10/19,17:10,0.783,1.182,0.833,1.489,1.062,0.460,0.807,0.767,�k,4.7,��
2018/10/19,17:20,0.786,1.180,0.832,1.490,1.063,0.460,0.806,0.767,�k,2.3,��
2018/10/19,17:30,0.784,1.182,0.832,1.487,1.063,0.458,0.807,0.767,�k��,1.5,��
2018/10/19,17:40,0.784,1.182,0.832,1.491,1.061,0.460,0.808,0.765,�k�k��,2.3,��
2018/10/19,17:50,0.783,1.182,0.834,1.488,1.061,0.458,0.807,0.765,�k�k��,4.5,��
2018/10/19,18:00,0.783,1.181,0.835,1.489,1.063,0.459,0.807,0.766,�k�k��,4.3,��
2018/10/19,18:10,0.785,1.182,0.833,1.491,1.062,0.459,0.807,0.765,�k��,4.4,��
2018/10/19,18:20,0.783,1.180,0.831,1.489,1.063,0.460,0.806,0.766,�k�k��,3.7,��
2018/10/19,18:30,0.783,1.180,0.835,1.490,1.062,0.459,0.808,0.766,�k��,3.4,��
2018/10/19,18:40,0.782,1.181,0.834,1.488,1.062,0.458,0.809,0.766,�k��,3.7,��
2018/10/19,18:50,0.782,1.183,0.832,1.488,1.059,0.458,0.810,0.765,�k��,4.3,��
2018/10/19,19:00,0.784,1.182,0.831,1.492,1.062,0.458,0.807,0.765,�k��,4.1,��
2018/10/19,19:10,0.782,1.182,0.832,1.491,1.060,0.458,0.808,0.764,�k�k��,4.1,��
2018/10/19,19:20,0.784,1.182,0.833,1.489,1.060,0.458,0.807,0.764,�k��,5.0,��
2018/10/19,19:30,0.783,1.181,0.834,1.491,1.060,0.459,0.808,0.766,�k��,4.8,��
2018/10/19,19:40,0.784,1.179,0.831,1.490,1.062,0.458,0.807,0.764,�k��,5.2,��
2018/10/19,19:50,0.782,1.181,0.831,1.489,1.060,0.459,0.805,0.764,�k��,4.8,��
2018/10/19,20:00,0.783,1.182,0.833,1.488,1.060,0.457,0.808,0.765,�k��,4.7,��
2018/10/19,20:10,0.783,1.180,0.832,1.490,1.062,0.459,0.808,0.764,�k�k��,5.2,��
2018/10/19,20:20,0.782,1.179,0.833,1.491,1.062,0.457,0.809,0.765,�k�k��,5.4,��
2018/10/19,20:30,0.781,1.183,0.830,1.490,1.059,0.458,0.806,0.765,�k�k��,5.1,��
2018/10/19,20:40,0.784,1.181,0.832,1.490,1.059,0.458,0.807,0.765,�k�k��,4.7,��
2018/10/19,20:50,0.782,1.178,0.832,1.487,1.058,0.458,0.810,0.764,�k�k��,4.8,��
2018/10/19,21:00,0.782,1.181,0.832,1.488,1.062,0.459,0.808,0.766,�k�k��,4.7,��
2018/10/19,21:10,0.783,1.180,0.832,1.489,1.059,0.459,0.809,0.766,�k�k��,5.5,��
2018/10/19,21:20,0.781,1.179,0.833,1.491,1.060,0.458,0.807,0.765,�k�k��,5.0,��
2018/10/19,21:30,0.783,1.180,0.834,1.488,1.062,0.458,0.808,0.764,�k��,5.6,��
2018/10/19,21:40,0.782,1.179,0.835,1.489,1.061,0.458,0.807,0.763,�k�k��,5.0,��
2018/10/19,21:50,0.780,1.179,0.832,1.489,1.061,0.459,0.808,0.765,�k�k��,5.1,��
2018/10/19,22:00,0.781,1.183,0.835,1.490,1.061,0.457,0.808,0.764,�k�k��,4.9,��
2018/10/19,22:10,0.784,1.180,0.832,1.490,1.061,0.458,0.809,0.764,�k�k��,4.8,��
2018/10/19,22:20,0.782,1.180,0.832,1.492,1.062,0.459,0.808,0.765,�k�k��,5.2,��
2018/10/19,22:30,0.781,1.183,0.831,1.487,1.060,0.459,0.806,0.764,�k��,4.9,��
2018/10/19,22:40,0.780,1.183,0.832,1.491,1.060,0.458,0.807,0.764,�k��,5.3,��
2018/10/19,22:50,0.782,1.180,0.832,1.488,1.062,0.458,0.807,0.766,�k��,5.2,��
2018/10/19,23:00,0.783,1.180,0.833,1.489,1.061,0.458,0.807,0.764,�k��,5.2,��
2018/10/19,23:10,0.782,1.181,0.833,1.489,1.063,0.458,0.809,0.766,�k�k��,5.1,��
2018/10/19,23:20,0.783,1.181,0.833,1.489,1.059,0.460,0.806,0.764,�k��,4.6,��
2018/10/19,23:30,0.783,1.182,0.833,1.489,1.060,0.459,0.808,0.765,�k��,4.0,��
2018/10/19,23:40,0.782,1.179,0.831,1.488,1.062,0.458,0.807,0.766,�k��,3.6,��
2018/10/19,23:50,0.783,1.180,0.833,1.491,1.060,0.458,0.807,0.767,�k��,3.1,��
